Location: Newark
(48.5667°N, 7.8167°E)
Time: 21:12:34
(UTC+00:00)

LO-87 - Visible Passes

Search period start: 03 July 2020 00:00
Search period end: 13 July 2020 00:00
Orbit: 472 x 491 km, 97.4° (Epoch: 03 July)

Date Brightness Start Highest point End Pass type
(mag) Time Alt. Az. Time Alt. Az. Time Alt. Az.
03 Jul ? 21:21:03 11° E 21:23:05 16° ENE 21:25:21 10° NNE visible
03 Jul ? 22:55:21 35° SW 22:56:10 41° W 22:59:33 10° NNW visible
04 Jul ? 22:29:50 45° S 22:30:51 87° W 22:34:24 10° NNW visible
05 Jul ? 22:04:20 30° ESE 22:05:37 45° ENE 22:09:01 10° N visible
05 Jul ? 23:38:38 14° WSW 23:39:15 14° W 23:41:13 10° WNW visible
06 Jul ? 21:38:49 17° ESE 21:40:28 24° ENE 21:43:22 10° NNE visible
06 Jul ? 23:13:07 25° WSW 23:13:47 26° W 23:16:49 10° NW visible
07 Jul ? 21:13:34 10° E 21:15:24 14° ENE 21:17:16 10° NNE visible
07 Jul ? 22:47:36 42° SW 22:48:23 52° W 22:51:52 10° NNW visible
08 Jul ? 22:22:06 44° SSE 22:23:05 75° ENE 22:26:38 10° N visible
09 Jul ? 21:56:35 27° ESE 21:57:52 36° ENE 22:01:10 10° N visible
09 Jul ? 23:30:53 17° WSW 23:31:25 17° W 23:33:50 10° NW visible
10 Jul ? 21:31:05 15° E 21:32:45 20° ENE 21:35:25 10° NNE visible
10 Jul ? 23:05:22 30° WSW 23:05:58 32° W 23:09:12 10° NNW visible
11 Jul ? 21:06:27 10° E 21:07:43 12° ENE 21:08:59 10° NE visible
11 Jul ? 22:39:52 50° SSW 22:40:36 66° W 22:44:08 10° NNW visible
12 Jul ? 22:14:21 41° SE 22:15:18 59° ENE 22:18:50 10° N visible
12 Jul ? 23:48:39 11° W 23:49:05 11° W 23:50:11 10° WNW visible
